Weather in Kimberley

South Africa     28°43′51″S   24°45′24″E
temp.,
°C
wind,
m/s
gust,
m/s
humid.,
%
clouds,
%
prec.,
mm/h
press.,
hPa
HPBL,
m
28 june, tue
tue2823:00+11ene44400 0.0 103528
02:00+10ene45450 0.0 103644
05:00+8ene56470 0.0 103555
08:00+8ne45460 0.0 103780
11:00+13nne56390 0.0 1036635
14:00+16nne44310 0.0 10321261
17:00+15ene33370 0.0 103147
20:00+12ene33450 0.0 103320
29 june, wed
wed2923:00+11e33460 0.0 103211
02:00+10ese22490 0.0 103210
05:00+9e22500 0.0 103210
08:00+8ne33530 0.0 103318
11:00+14nne11340 0.0 1032569
14:00+16ssw11300 0.0 10291482
17:00+15sse23330 0.0 102845
20:00+12sse22390 0.0 102911
30 june, thu
thu3023:00+10se22420 0.0 102910
02:00+9se33440 0.0 102911
05:00+8ese33440 0.0 102810
08:00+9ese33420 0.0 103016
11:00+14ene22290 0.0 1029529
14:00+17ne34240 0.0 10261282
17:00+16ne33280 0.0 102532
20:00+12ne44340 0.0 102626
1 july, fri
fri123:00+11ne34370 0.0 102719
02:00+9nne44400 0.0 102733
05:00+8nne56440 0.0 102757
08:00+8n46460 0.0 102978
11:00+14n68430 0.0 1027631
14:00+17n78360 0.0 10241385
17:00+16n46390 0.0 1023122
20:00+13n58491 0.0 1024111
2 july, sat
sat223:00+11n59560 0.0 1025120
02:00+10n58640 0.0 1025113
05:00+9n511710 0.0 1024160
08:00+9n613720 0.0 1025240
11:00+16nnw912470 0.0 1023933
14:00+19nw910300 0.0 10192286
17:00+18nnw710340 0.0 1019287
20:00+14nnw58450 0.0 1020100